Weather History for KSZL - October, 2014

Change the Weather History Date:

Friday, October 31, 2014

  Actual Average Record
Temperature  
Mean Temperature 40 °F -  
Max Temperature 50 °F 59 °F 78 °F (2000)
Min Temperature 30 °F 42 °F 28 °F (2006)
Degree Days  
Heating Degree Days 25    
Moisture  
Dew Point 26 °F    
Average Humidity 55    
Maximum Humidity 71    
Minimum Humidity 32    
Precipitation  
Precipitation 0.00 in - - ()
Sea Level Pressure  
Sea Level Pressure 30.38 in    
Wind  
Wind Speed 16 mph (North)    
Max Wind Speed 25 mph    
Max Gust Speed 34 mph    
Visibility 9 miles    
Events      
Averages and records for this station are not official NWS values.
T = Trace of Precipitation, MM = Missing Value Source: NWS Daily Summary

Daily Weather History Graph

Daily Weather History Graph

Search for Another Location

Airport or City:

Trip Planner

Search our weather history database for the weather conditions in past years. The results will help you decide how hot, cold, wet, or windy it might be!

Date:

Astronomy

Oct. 31, 2014 Rise Set
Actual Time 7:40 AM CDT 6:14 PM CDT
Civil Twilight 7:12 AM CDT 6:42 PM CDT
Nautical Twilight 6:41 AM CDT 7:13 PM CDT
Astronomical Twilight 6:10 AM CDT 7:44 PM CDT
Moon 2:25 PM CDT (10/31) 12:34 AM CDT (10/31)
Length of Visible Light 11h 29m
Length of Day
10h 34m
First Quarter, 57% of the Moon is Illuminated
Oct 31
First Quarter
Nov 6
Full
Nov 14
Last Quarter
Nov 22
New
Nov 29
First Quarter

Hourly Weather History & Observations

Time (CDT) Temp. Windchill Dew Point Humidity Pressure Visibility Wind Dir Wind Speed Gust Speed Precip Events Conditions
12:58 AM 50.5 °F - 38.8 °F 64% 30.15 in 9.0 mi NNW 13.8 mph 24.2 mph N/A   Clear
1:58 AM 49.3 °F - 38.5 °F 66% 30.18 in 9.0 mi NNW 17.3 mph 23.0 mph N/A   Clear
2:58 AM 49.6 °F - 39.2 °F 67% 30.20 in 9.0 mi North 21.9 mph 27.6 mph N/A   Overcast
3:58 AM 49.1 °F - 39.9 °F 71% 30.23 in 9.0 mi North 12.7 mph - N/A   Overcast
4:13 AM 48.2 °F - 39.2 °F 71% 30.23 in 9.0 mi North 17.3 mph - N/A   Overcast
4:58 AM 48.2 °F - 37.4 °F 66% 30.25 in 9.0 mi North 25.3 mph 29.9 mph N/A   Overcast
5:33 AM 46.4 °F 38.5 °F 37.4 °F 71% 30.27 in 9.0 mi North 21.9 mph 28.8 mph N/A   Overcast
5:58 AM 45.1 °F 36.6 °F 34.7 °F 67% 30.30 in 9.0 mi North 23.0 mph 34.5 mph N/A   Overcast
6:33 AM 42.8 °F 34.8 °F 32.0 °F 66% 30.30 in 10.0 mi North 17.3 mph 27.6 mph N/A   Overcast
6:58 AM 41.5 °F 32.6 °F 30.9 °F 66% 30.33 in 10.0 mi North 19.6 mph 26.5 mph N/A   Overcast
7:58 AM 37.4 °F 26.6 °F 25.7 °F 63% 30.39 in 9.0 mi North 21.9 mph 27.6 mph N/A   Mostly Cloudy
8:58 AM 37.6 °F 27.4 °F 25.0 °F 60% 30.43 in 10.0 mi North 19.6 mph 27.6 mph N/A   Clear
9:58 AM 38.7 °F 29.5 °F 23.4 °F 54% 30.44 in 8.0 mi NNW 17.3 mph 25.3 mph N/A   Clear
10:58 AM 39.6 °F 30.6 °F 18.5 °F 43% 30.46 in 8.0 mi North 17.3 mph 28.8 mph N/A   Clear
11:58 AM 42.1 °F 34.5 °F 19.8 °F 41% 30.47 in 8.0 mi North 15.0 mph 24.2 mph N/A   Clear
12:58 PM 44.1 °F 37.4 °F 19.8 °F 38% 30.45 in 10.0 mi North 13.8 mph - N/A   Clear
1:58 PM 44.1 °F 36.5 °F 18.5 °F 36% 30.44 in 8.0 mi North 17.3 mph 20.7 mph N/A   Clear
2:26 PM 44.6 °F 37.2 °F 17.6 °F 34% 30.41 in 8.0 mi NNE 17.3 mph - N/A   Clear
2:58 PM 45.1 °F 38.8 °F 18.5 °F 35% 30.43 in 10.0 mi North 13.8 mph - N/A   Clear
3:58 PM 45.3 °F 38.4 °F 16.5 °F 32% 30.43 in 10.0 mi North 16.1 mph 20.7 mph N/A   Clear
4:58 PM 44.2 °F 37.6 °F 16.2 °F 32% 30.43 in 8.0 mi NNW 13.8 mph - N/A   Clear
5:58 PM 41.9 °F 36.9 °F 15.8 °F 35% 30.43 in 8.0 mi North 8.1 mph - N/A   Clear
6:58 PM 37.2 °F 31.2 °F 18.1 °F 46% 30.45 in 9.0 mi North 8.1 mph - N/A   Clear
7:58 PM 34.0 °F 27.2 °F 19.8 °F 56% 30.46 in 9.0 mi North 8.1 mph - N/A   Clear
8:58 PM 33.3 °F 27.9 °F 20.5 °F 59% 30.46 in 9.0 mi North 5.8 mph - N/A   Clear
9:58 PM 30.2 °F 23.4 °F 20.5 °F 67% 30.47 in 9.0 mi NNE 6.9 mph - N/A   Clear
10:58 PM 30.0 °F 23.2 °F 20.1 °F 67% 30.48 in 9.0 mi North 6.9 mph - N/A   Clear
11:03 PM 32.0 °F 26.4 °F 21.2 °F 64% 30.45 in 9.0 mi North 5.8 mph - N/A   Clear
11:58 PM 30.6 °F 24.7 °F 20.7 °F 67% 30.48 in 8.0 mi NW 5.8 mph - N/A   Clear